Belen, NM

8:18 AM MDT on March 25, 2017 (GMT -0600)
Belen

Weather History for KE80 - November, 2013

Change the Weather History Date:

Friday, November 22, 2013

  Actual Average (KABQ) Record (KABQ)
Temperature  
Mean Temperature 38 °F -  
Max Temperature 44 °F 55 °F 78 °F (1915)
Min Temperature 33 °F 28 °F 15 °F (1916)
Degree Days  
Heating Degree Days 26    
Moisture  
Dew Point 32 °F    
Average Humidity 81    
Maximum Humidity 90    
Minimum Humidity 75    
Precipitation  
Precipitation 0.00 in - - ()
Sea Level Pressure  
Sea Level Pressure 30.27 in    
Wind  
Wind Speed 11 mph (WNW)    
Max Wind Speed 17 mph    
Max Gust Speed 23 mph    
Visibility 10 miles    
Events      
Averages and records for this station are not official NWS values.
T = Trace of Precipitation, MM = Missing Value Source: NWS Daily Summary

Daily Weather History Graph

Daily Weather History Graph

Search for Another Location

Airport or City:

Trip Planner

Search our weather history database for the weather conditions in past years. The results will help you decide how hot, cold, wet, or windy it might be!

Date:

Astronomy

Nov. 22, 2013 Rise Set
Actual Time 6:48 AM MST 4:58 PM MST
Civil Twilight 6:20 AM MST 5:25 PM MST
Nautical Twilight 5:50 AM MST 5:56 PM MST
Astronomical Twilight 5:19 AM MST 6:26 PM MST
Moon 9:30 PM MST (11/22) 10:35 AM MST (11/22)
Length of Visible Light 11h 05m
Length of Day
10h 10m
Waning Gibbous, 77% of the Moon is Illuminated
Nov 22
Waning Gibbous
Nov 25
Last Quarter
Dec 2
New
Dec 9
First Quarter
Dec 17
Full

Hourly Weather History & Observations

Time (MST) Temp. Windchill Dew Point Humidity Pressure Visibility Wind Dir Wind Speed Gust Speed Precip Events Conditions
12:15 AM 44.1 °F 37.1 °F 40.3 °F 87% 30.11 in 10.0 mi SSE 15.0 mph - N/A   Overcast
12:35 AM 43.9 °F 36.8 °F 39.4 °F 84% 30.11 in 10.0 mi SSE 15.0 mph - N/A   Mostly Cloudy
12:55 AM 44.2 °F 37.3 °F 39.4 °F 83% 30.12 in 10.0 mi SSE 15.0 mph - N/A   Mostly Cloudy
1:15 AM 44.6 °F 38.1 °F 38.8 °F 80% 30.11 in 10.0 mi SE 13.8 mph - N/A   Overcast
1:35 AM 44.1 °F 37.7 °F 39.0 °F 82% 30.12 in 10.0 mi SSE 12.7 mph - N/A   Overcast
1:55 AM 44.1 °F 39.0 °F 38.1 °F 80% 30.12 in 10.0 mi SSE 9.2 mph 16.1 mph N/A   Overcast
2:15 AM 44.6 °F 38.4 °F 37.8 °F 77% 30.13 in 10.0 mi SE 12.7 mph 17.3 mph N/A   Overcast
2:35 AM 44.8 °F 38.0 °F 37.2 °F 75% 30.13 in 10.0 mi SE 15.0 mph - N/A   Overcast
2:55 AM 44.8 °F 39.4 °F 37.2 °F 75% 30.13 in 10.0 mi SSE 10.4 mph - N/A   Overcast
3:15 AM 43.7 °F 38.6 °F 37.2 °F 78% 30.14 in 10.0 mi SSE 9.2 mph - N/A   Overcast
3:35 AM 43.3 °F 38.1 °F 37.6 °F 80% 30.14 in 10.0 mi SSE 9.2 mph - N/A   Overcast
3:55 AM 42.3 °F 37.3 °F 35.8 °F 78% 30.14 in 10.0 mi SSE 8.1 mph - N/A   Overcast
4:15 AM 41.9 °F 38.2 °F 36.7 °F 82% 30.15 in 10.0 mi South 5.8 mph - N/A   Mostly Cloudy
4:35 AM 41.9 °F - 39.0 °F 90% 30.16 in 10.0 mi Calm Calm - N/A   Mostly Cloudy
4:55 AM 39.7 °F 33.7 °F 36.0 °F 86% 30.17 in 10.0 mi NNW 9.2 mph - N/A   Mostly Cloudy
5:15 AM 38.1 °F 32.3 °F 34.7 °F 87% 30.17 in 10.0 mi NW 8.1 mph - N/A   Scattered Clouds
5:35 AM 36.5 °F 30.3 °F 32.5 °F 86% 30.18 in 10.0 mi NNW 8.1 mph - N/A   Clear
5:55 AM 35.6 °F 28.6 °F 32.0 °F 87% 30.19 in 10.0 mi NW 9.2 mph - N/A   Clear
6:15 AM 35.1 °F 27.4 °F 31.8 °F 88% 30.21 in 10.0 mi NNW 10.4 mph - N/A   Scattered Clouds
6:35 AM 34.9 °F 26.2 °F 31.5 °F 87% 30.22 in 10.0 mi NNW 12.7 mph - N/A   Scattered Clouds
6:55 AM 34.7 °F 26.4 °F 30.9 °F 86% 30.23 in 10.0 mi NW 11.5 mph 17.3 mph N/A   Scattered Clouds
7:15 AM 34.9 °F 26.6 °F 30.7 °F 85% 30.25 in 10.0 mi NW 11.5 mph - N/A   Mostly Cloudy
7:35 AM 34.9 °F 24.9 °F 30.7 °F 85% 30.25 in 10.0 mi NW 16.1 mph - N/A   Mostly Cloudy
7:55 AM 35.4 °F 25.3 °F 30.7 °F 83% 30.27 in 10.0 mi NW 17.3 mph 23.0 mph N/A   Scattered Clouds
8:15 AM 35.4 °F 25.3 °F 30.6 °F 82% 30.27 in 10.0 mi NW 17.3 mph 21.9 mph N/A   Scattered Clouds
8:35 AM 35.1 °F 25.2 °F 29.8 °F 81% 30.28 in 10.0 mi NW 16.1 mph 23.0 mph N/A   Clear
8:55 AM 35.8 °F 26.5 °F 30.7 °F 82% 30.29 in 10.0 mi WNW 15.0 mph 20.7 mph N/A   Scattered Clouds
9:15 AM 36.1 °F 27.3 °F 30.4 °F 80% 30.30 in 10.0 mi NW 13.8 mph 19.6 mph N/A   Mostly Cloudy
9:35 AM 36.5 °F 27.4 °F 30.6 °F 79% 30.30 in 10.0 mi NW 15.0 mph - N/A   Overcast
9:55 AM 36.3 °F 27.1 °F 30.0 °F 78% 30.32 in 10.0 mi NW 15.0 mph - N/A   Overcast
10:15 AM 36.7 °F 27.6 °F 30.2 °F 77% 30.32 in 10.0 mi NW 15.0 mph 18.4 mph N/A   Overcast
10:35 AM 36.7 °F 27.2 °F 30.0 °F 77% 30.32 in 10.0 mi NW 16.1 mph - N/A   Overcast
10:55 AM 36.7 °F 28.4 °F 29.8 °F 76% 30.33 in 10.0 mi NW 12.7 mph - N/A   Overcast
11:15 AM 37.4 °F 29.3 °F 30.6 °F 76% 30.32 in 10.0 mi NW 12.7 mph - N/A   Overcast
11:35 AM 37.4 °F 29.8 °F 30.9 °F 77% 30.31 in 10.0 mi NW 11.5 mph - N/A   Overcast
11:55 AM 37.0 °F 29.3 °F 30.2 °F 76% 30.30 in 10.0 mi WNW 11.5 mph - N/A   Overcast
12:15 PM 36.9 °F 28.2 °F 30.2 °F 77% 30.31 in 10.0 mi WNW 13.8 mph - N/A   Overcast
12:35 PM 36.7 °F 28.4 °F 30.0 °F 77% 30.31 in 10.0 mi WNW 12.7 mph - N/A   Overcast
12:55 PM 36.9 °F 30.1 °F 30.2 °F 77% 30.30 in 10.0 mi WNW 9.2 mph - N/A   Overcast
1:15 PM 36.9 °F 30.1 °F 30.2 °F 77% 30.30 in 10.0 mi NW 9.2 mph - N/A   Overcast
1:35 PM 36.7 °F 29.4 °F 30.2 °F 77% 30.30 in 10.0 mi NW 10.4 mph - N/A   Overcast
1:55 PM 35.6 °F 29.2 °F 28.9 °F 77% 30.30 in 10.0 mi West 8.1 mph - N/A   Overcast
2:15 PM 35.2 °F 28.1 °F 29.1 °F 78% 30.30 in 10.0 mi WNW 9.2 mph - N/A   Overcast
2:35 PM 35.1 °F 28.6 °F 29.1 °F 79% 30.30 in 10.0 mi West 8.1 mph - N/A   Overcast
2:55 PM 35.2 °F 28.8 °F 28.6 °F 77% 30.30 in 10.0 mi WNW 8.1 mph - N/A   Overcast
3:15 PM 35.2 °F 28.8 °F 28.9 °F 78% 30.30 in 10.0 mi NW 8.1 mph - N/A   Overcast
3:35 PM 35.6 °F 28.6 °F 29.1 °F 77% 30.29 in 10.0 mi WNW 9.2 mph - N/A   Overcast
3:55 PM 35.6 °F 27.5 °F 29.1 °F 77% 30.29 in 10.0 mi WNW 11.5 mph - N/A   Overcast
4:15 PM 35.2 °F 26.6 °F 29.1 °F 78% 30.29 in 10.0 mi NW 12.7 mph - N/A   Overcast
4:35 PM 35.1 °F 27.9 °F 29.1 °F 79% 30.30 in 10.0 mi WNW 9.2 mph - N/A   Overcast
4:55 PM 34.7 °F 27.5 °F 28.4 °F 78% 30.31 in 10.0 mi West 9.2 mph - N/A   Overcast
5:15 PM 34.5 °F 27.3 °F 28.4 °F 78% 30.31 in 10.0 mi WNW 9.2 mph - N/A   Overcast
5:35 PM 34.7 °F 27.5 °F 28.8 °F 79% 30.32 in 10.0 mi WNW 9.2 mph - N/A   Overcast
5:55 PM 34.2 °F 26.8 °F 28.4 °F 79% 30.33 in 10.0 mi WNW 9.2 mph - N/A   Overcast
6:15 PM 34.0 °F 28.0 °F 28.4 °F 80% 30.33 in 10.0 mi WNW 6.9 mph - N/A   Overcast
6:35 PM 34.0 °F 27.2 °F 28.6 °F 81% 30.34 in 10.0 mi WNW 8.1 mph - N/A   Overcast
6:55 PM 34.2 °F 27.5 °F 28.4 °F 79% 30.34 in 10.0 mi WNW 8.1 mph - N/A   Overcast
7:15 PM 34.2 °F 27.5 °F 28.9 °F 81% 30.34 in 10.0 mi WNW 8.1 mph - N/A   Overcast
7:35 PM 34.2 °F 27.5 °F 29.1 °F 82% 30.35 in 10.0 mi WNW 8.1 mph - N/A   Overcast
7:55 PM 34.3 °F 27.7 °F 29.1 °F 81% 30.34 in 10.0 mi WNW 8.1 mph - N/A   Overcast
8:15 PM 34.3 °F 27.7 °F 29.1 °F 81% 30.34 in 10.0 mi WNW 8.1 mph - N/A   Overcast
8:35 PM 34.3 °F 28.4 °F 29.7 °F 83% 30.34 in 10.0 mi WNW 6.9 mph - N/A   Overcast
8:55 PM 34.0 °F 28.8 °F 29.8 °F 85% 30.35 in 10.0 mi West 5.8 mph - N/A   Overcast
9:15 PM 33.8 °F 28.6 °F 29.5 °F 84% 30.36 in 10.0 mi West 5.8 mph - N/A   Overcast
9:35 PM 33.8 °F 28.6 °F 29.3 °F 84% 30.35 in 10.0 mi West 5.8 mph - N/A   Overcast
9:55 PM 34.0 °F 28.8 °F 29.7 °F 84% 30.35 in 10.0 mi WNW 5.8 mph - N/A   Overcast
10:15 PM 34.2 °F 28.2 °F 30.2 °F 85% 30.35 in 10.0 mi WNW 6.9 mph - N/A   Overcast
10:35 PM 33.8 °F 27.0 °F 29.1 °F 83% 30.36 in 10.0 mi WNW 8.1 mph - N/A   Overcast
10:55 PM 33.8 °F 27.7 °F 28.9 °F 82% 30.36 in 10.0 mi WNW 6.9 mph - N/A   Overcast
11:15 PM 33.8 °F 27.0 °F 28.9 °F 82% 30.36 in 10.0 mi WNW 8.1 mph - N/A   Overcast
11:35 PM 33.8 °F 27.0 °F 29.3 °F 84% 30.36 in 10.0 mi WNW 8.1 mph - N/A   Overcast
11:55 PM 33.8 °F 25.8 °F 29.5 °F 84% 30.35 in 10.0 mi NW 10.4 mph - N/A   Overcast